EVA238 WIII-RCTP

Flight info

Callsign EVA238
Flight time N/A
Altitude 37000
Route AMBOY P648 VJN M646 MIKEL/N0486F390 M646 MIA/N0490F380 B462 LAO/N0485F390 M646 HCN W4 TNN TNN1A
Aircraft B77W/H-SDE1E2E3FGHIJ2J3J4J5M1RWXY/LB1D1

Departure

Time 2026-04-30 10:20
Airport Soekarno-Hatta International Airport (WIII)

Arrival

Time N/A
Airport Taiwan Taoyuan International Airport (RCTP)
Time Latitude Longitude Altitude Speed Heading
2026-04-30 09:48 -6.11817 106.66305 53 ft 0 kts 159°
2026-04-30 10:04 -6.11815 106.66304 53 ft 2 kts 159°
2026-04-30 10:04 -6.11801 106.66299 53 ft 2 kts 159°
2026-04-30 10:04 -6.11787 106.66293 53 ft 2 kts 159°
2026-04-30 10:05 -6.11773 106.66288 53 ft 2 kts 159°
2026-04-30 10:05 -6.11759 106.66282 53 ft 2 kts 161°
2026-04-30 10:05 -6.11745 106.66280 53 ft 2 kts 185°
2026-04-30 10:05 -6.11730 106.66283 53 ft 2 kts 204°
2026-04-30 10:06 -6.11717 106.66290 53 ft 2 kts 223°
2026-04-30 10:06 -6.11708 106.66302 53 ft 2 kts 242°
2026-04-30 10:06 -6.11705 106.66309 53 ft 1 kts 248°
2026-04-30 10:09 -6.11709 106.66299 53 ft 4 kts 248°
2026-04-30 10:09 -6.11730 106.66247 53 ft 11 kts 248°
2026-04-30 10:09 -6.11767 106.66156 53 ft 15 kts 248°
2026-04-30 10:10 -6.11799 106.66072 53 ft 7 kts 255°
2026-04-30 10:10 -6.11801 106.66034 53 ft 5 kts 282°
2026-04-30 10:10 -6.11776 106.66005 53 ft 6 kts 336°
2026-04-30 10:10 -6.11734 106.65993 53 ft 6 kts 341°
2026-04-30 10:11 -6.11695 106.65978 53 ft 5 kts 336°
2026-04-30 10:11 -6.11652 106.65959 53 ft 8 kts 336°
2026-04-30 10:11 -6.11586 106.65930 53 ft 11 kts 334°
2026-04-30 10:11 -6.11528 106.65900 53 ft 6 kts 320°
2026-04-30 10:12 -6.11515 106.65852 53 ft 10 kts 261°
2026-04-30 10:12 -6.11546 106.65762 53 ft 16 kts 249°
2026-04-30 10:12 -6.11598 106.65636 53 ft 22 kts 248°
2026-04-30 10:12 -6.11661 106.65478 53 ft 24 kts 248°
2026-04-30 10:13 -6.11720 106.65325 53 ft 22 kts 248°
2026-04-30 10:13 -6.11777 106.65185 53 ft 20 kts 248°
2026-04-30 10:13 -6.11827 106.65057 53 ft 18 kts 248°
2026-04-30 10:13 -6.11874 106.64940 53 ft 17 kts 248°
2026-04-30 10:14 -6.11918 106.64831 53 ft 15 kts 248°
2026-04-30 10:14 -6.11957 106.64732 53 ft 14 kts 248°
2026-04-30 10:14 -6.12028 106.64555 53 ft 13 kts 248°
2026-04-30 10:15 -6.12066 106.64461 53 ft 15 kts 248°
2026-04-30 10:15 -6.12108 106.64356 53 ft 17 kts 249°
2026-04-30 10:15 -6.12159 106.64223 53 ft 22 kts 249°
2026-04-30 10:15 -6.12223 106.64062 53 ft 18 kts 248°
2026-04-30 10:16 -6.12252 106.63991 53 ft 9 kts 248°
2026-04-30 10:16 -6.12256 106.63927 53 ft 8 kts 289°
2026-04-30 10:16 -6.12244 106.63908 53 ft 0 kts 315°
2026-04-30 10:17 -6.12243 106.63907 53 ft 0 kts 315°
2026-04-30 10:17 -6.12240 106.63905 53 ft 2 kts 315°
2026-04-30 10:17 -6.12208 106.63889 53 ft 7 kts 349°
2026-04-30 10:18 -6.12159 106.63894 53 ft 6 kts 16°
2026-04-30 10:18 -6.12129 106.63902 53 ft 5 kts 15°
2026-04-30 10:18 -6.12096 106.63919 53 ft 5 kts 43°
2026-04-30 10:19 -6.12072 106.63958 53 ft 0 kts 68°
2026-04-30 10:19 -6.12030 106.64061 53 ft 49 kts 68°
2026-04-30 10:19 -6.11799 106.64639 53 ft 125 kts 68°
2026-04-30 10:20 -6.11405 106.65634 199 ft 172 kts 65°
2026-04-30 10:20 -6.10443 106.67821 1761 ft 168 kts 49°
2026-04-30 10:20 -6.09607 106.68731 2093 ft 185 kts 46°
2026-04-30 10:21 -6.08682 106.69700 2474 ft 201 kts 46°
2026-04-30 10:21 -6.07674 106.70755 2905 ft 217 kts 46°
2026-04-30 10:21 -6.06602 106.71878 3348 ft 233 kts 46°
2026-04-30 10:21 -6.05430 106.73106 3809 ft 250 kts 47°
2026-04-30 10:22 -6.04200 106.74394 4324 ft 264 kts 47°
2026-04-30 10:22 -6.02910 106.75745 5113 ft 267 kts 47°
2026-04-30 10:22 -6.01628 106.77087 5864 ft 271 kts 46°
2026-04-30 10:22 -6.00323 106.78455 6590 ft 274 kts 46°
2026-04-30 10:23 -5.98992 106.79848 7325 ft 277 kts 46°
2026-04-30 10:23 -5.97664 106.81238 8046 ft 280 kts 46°
2026-04-30 10:23 -5.96335 106.82677 8736 ft 283 kts 53°
2026-04-30 10:23 -5.95270 106.84370 9411 ft 287 kts 61°
2026-04-30 10:24 -5.94313 106.86125 10100 ft 289 kts 62°
2026-04-30 10:24 -5.93338 106.87923 10607 ft 301 kts 62°
2026-04-30 10:24 -5.92302 106.89818 10996 ft 318 kts 62°
2026-04-30 10:24 -5.91205 106.91818 11429 ft 334 kts 62°
2026-04-30 10:25 -5.90066 106.93890 11874 ft 349 kts 62°
2026-04-30 10:25 -5.88861 106.96085 12366 ft 363 kts 62°
2026-04-30 10:25 -5.87621 106.98341 12857 ft 377 kts 62°
2026-04-30 10:25 -5.86346 107.00662 13380 ft 390 kts 62°
2026-04-30 10:26 -5.85014 107.03085 14117 ft 397 kts 62°
2026-04-30 10:26 -5.83685 107.05502 14973 ft 401 kts 62°
2026-04-30 10:26 -5.82335 107.07958 15897 ft 404 kts 62°
2026-04-30 10:26 -5.80973 107.10435 16729 ft 408 kts 62°
2026-04-30 10:27 -5.79599 107.12927 17506 ft 413 kts 62°
2026-04-30 10:27 -5.78196 107.15473 18248 ft 419 kts 62°
2026-04-30 10:27 -5.76787 107.18031 18969 ft 424 kts 62°
2026-04-30 10:27 -5.75337 107.20661 19655 ft 430 kts 62°
2026-04-30 10:28 -5.73890 107.23285 20371 ft 434 kts 62°
2026-04-30 10:28 -5.72421 107.25951 21039 ft 439 kts 62°
2026-04-30 10:28 -5.70942 107.28640 21681 ft 444 kts 62°
2026-04-30 10:28 -5.69455 107.31345 22284 ft 449 kts 62°
2026-04-30 10:29 -5.67934 107.34112 22978 ft 452 kts 62°
2026-04-30 10:29 -5.66420 107.36865 23634 ft 456 kts 62°
2026-04-30 10:29 -5.64881 107.39661 24257 ft 460 kts 62°
2026-04-30 10:29 -5.63321 107.42497 24866 ft 464 kts 62°
2026-04-30 10:30 -5.61760 107.45333 25475 ft 468 kts 62°
2026-04-30 10:30 -5.60176 107.48212 26095 ft 471 kts 62°
2026-04-30 10:30 -5.58583 107.51106 26675 ft 476 kts 62°
2026-04-30 10:30 -5.56983 107.54012 27202 ft 481 kts 62°
2026-04-30 10:31 -5.55363 107.56953 27790 ft 484 kts 62°
2026-04-30 10:31 -5.53732 107.59917 28349 ft 488 kts 62°
2026-04-30 10:31 -5.52087 107.62904 28917 ft 491 kts 62°
2026-04-30 10:31 -5.50439 107.65894 29548 ft 493 kts 62°
2026-04-30 10:32 -5.48772 107.68920 30359 ft 491 kts 62°
2026-04-30 10:32 -5.47114 107.71847 31264 ft 486 kts 58°
2026-04-30 10:32 -5.45093 107.74575 32199 ft 481 kts 50°
2026-04-30 10:32 -5.42756 107.76913 33090 ft 478 kts 41°
2026-04-30 10:33 -5.40069 107.78909 33901 ft 478 kts 33°
2026-04-30 10:33 -5.37162 107.80468 34601 ft 479 kts 25°
2026-04-30 10:33 -5.33985 107.81620 35290 ft 481 kts 19°
2026-04-30 10:33 -5.30777 107.82561 35972 ft 480 kts 18°
2026-04-30 10:34 -5.27531 107.83498 36570 ft 479 kts 18°
2026-04-30 10:34 -5.24284 107.84436 36853 ft 483 kts 18°
2026-04-30 10:34 -5.17798 107.86314 36847 ft 480 kts 18°
2026-04-30 10:35 -5.11343 107.88187 36849 ft 479 kts 18°
2026-04-30 10:35 -5.04922 107.90051 36848 ft 478 kts 18°
2026-04-30 10:36 -4.98487 107.91921 36847 ft 477 kts 18°
2026-04-30 10:36 -4.92101 107.93777 36847 ft 478 kts 18°
2026-04-30 10:37 -4.85653 107.95651 36848 ft 479 kts 18°
2026-04-30 10:37 -4.79226 107.97518 36848 ft 479 kts 18°
2026-04-30 10:38 -4.72828 107.99379 36849 ft 478 kts 18°
2026-04-30 10:38 -4.66396 108.01250 36849 ft 478 kts 18°
2026-04-30 10:39 -4.59999 108.03110 36846 ft 479 kts 18°
2026-04-30 10:39 -4.53543 108.04986 36847 ft 477 kts 18°
2026-04-30 10:40 -4.47128 108.06850 36848 ft 479 kts 18°
2026-04-30 10:40 -4.40680 108.08724 36851 ft 478 kts 18°
2026-04-30 10:41 -4.34266 108.10587 36860 ft 477 kts 18°
2026-04-30 10:41 -4.27867 108.12447 36863 ft 478 kts 18°
2026-04-30 10:42 -4.21470 108.14304 36866 ft 478 kts 18°
2026-04-30 10:42 -4.15093 108.16309 36865 ft 476 kts 25°
2026-04-30 10:43 -4.09475 108.19692 36870 ft 473 kts 39°
2026-04-30 10:43 -4.04257 108.23766 36866 ft 472 kts 39°
2026-04-30 10:44 -3.99063 108.27835 36866 ft 473 kts 40°
2026-04-30 10:44 -3.93888 108.31888 36865 ft 471 kts 39°
2026-04-30 10:45 -3.88717 108.35935 36867 ft 472 kts 40°
2026-04-30 10:45 -3.83527 108.39997 36864 ft 472 kts 40°
2026-04-30 10:46 -3.78308 108.44080 36865 ft 474 kts 39°
2026-04-30 10:46 -3.73133 108.48128 36862 ft 473 kts 40°
2026-04-30 10:47 -3.67910 108.52213 36862 ft 472 kts 40°
2026-04-30 10:47 -3.62717 108.56274 36858 ft 471 kts 40°
2026-04-30 10:48 -3.57537 108.60323 36853 ft 472 kts 40°
2026-04-30 10:48 -3.52377 108.64357 36850 ft 471 kts 40°
2026-04-30 10:49 -3.47182 108.68417 36855 ft 474 kts 40°
2026-04-30 10:49 -3.41972 108.72489 36852 ft 473 kts 40°
2026-04-30 10:50 -3.36779 108.76547 36852 ft 472 kts 40°
2026-04-30 10:50 -3.31610 108.80585 36850 ft 472 kts 40°
2026-04-30 10:51 -3.26399 108.84656 36848 ft 471 kts 40°
2026-04-30 10:51 -3.21191 108.88724 36848 ft 473 kts 40°
2026-04-30 10:52 -3.16002 108.92776 36847 ft 474 kts 40°
2026-04-30 10:52 -3.10789 108.96847 36856 ft 471 kts 40°
2026-04-30 10:53 -3.05607 109.00893 36865 ft 473 kts 40°
2026-04-30 10:53 -3.00461 109.04909 36864 ft 471 kts 40°
2026-04-30 10:54 -2.95259 109.08971 36862 ft 472 kts 40°
2026-04-30 10:54 -2.90084 109.13010 36868 ft 473 kts 40°
2026-04-30 10:55 -2.84918 109.17141 36866 ft 474 kts 41°
2026-04-30 10:55 -2.79802 109.21294 36873 ft 474 kts 41°
2026-04-30 10:56 -2.74681 109.25444 36866 ft 475 kts 41°
2026-04-30 10:56 -2.69534 109.29611 36867 ft 476 kts 41°
2026-04-30 10:57 -2.64379 109.33782 36865 ft 475 kts 40°
2026-04-30 10:57 -2.59234 109.37945 36869 ft 476 kts 40°
2026-04-30 10:58 -2.54061 109.42130 36866 ft 476 kts 41°
2026-04-30 10:58 -2.48889 109.46313 36866 ft 477 kts 40°
2026-04-30 10:59 -2.43743 109.50474 36864 ft 477 kts 40°
2026-04-30 10:59 -2.38541 109.54680 36866 ft 477 kts 40°
2026-04-30 11:00 -2.33379 109.58853 36865 ft 479 kts 40°
2026-04-30 11:00 -2.28187 109.63049 36864 ft 478 kts 41°
2026-04-30 11:01 -2.22978 109.67261 36867 ft 480 kts 40°
2026-04-30 11:01 -2.17769 109.71469 36868 ft 477 kts 40°
2026-04-30 11:02 -2.12598 109.75649 36868 ft 479 kts 40°
2026-04-30 11:02 -2.07422 109.79832 36869 ft 479 kts 40°
2026-04-30 11:03 -2.02222 109.84032 36868 ft 480 kts 40°
2026-04-30 11:04 -1.94446 109.90315 36871 ft 479 kts 40°
2026-04-30 11:04 -1.89214 109.94541 36867 ft 479 kts 40°
2026-04-30 11:05 -1.84023 109.98734 36866 ft 480 kts 40°
2026-04-30 11:05 -1.78834 110.02926 36872 ft 478 kts 40°
2026-04-30 11:06 -1.73636 110.07124 36874 ft 479 kts 40°
2026-04-30 11:06 -1.68436 110.11324 36878 ft 480 kts 40°
2026-04-30 11:07 -1.63121 110.15408 36880 ft 479 kts 38°
2026-04-30 11:07 -1.57793 110.19437 36877 ft 479 kts 38°
2026-04-30 11:08 -1.52470 110.23472 36878 ft 478 kts 38°
2026-04-30 11:08 -1.47166 110.27496 36884 ft 478 kts 38°
2026-04-30 11:09 -1.41848 110.31535 36892 ft 479 kts 38°
2026-04-30 11:09 -1.36541 110.35566 36894 ft 479 kts 38°
2026-04-30 11:10 -1.31209 110.39616 36892 ft 480 kts 38°
2026-04-30 11:10 -1.25913 110.43684 36880 ft 480 kts 39°
2026-04-30 11:11 -1.20631 110.47813 36880 ft 478 kts 39°
2026-04-30 11:11 -1.15368 110.51924 36879 ft 479 kts 39°
2026-04-30 11:12 -1.10081 110.56051 36877 ft 481 kts 39°
2026-04-30 11:12 -1.04785 110.60183 36880 ft 480 kts 39°
2026-04-30 11:13 -0.99554 110.64263 36885 ft 480 kts 39°
2026-04-30 11:13 -0.94247 110.68402 36888 ft 478 kts 39°
2026-04-30 11:14 -0.88988 110.72504 36893 ft 480 kts 39°
2026-04-30 11:14 -0.83716 110.76615 36896 ft 480 kts 39°
2026-04-30 11:15 -0.78439 110.80730 36899 ft 482 kts 39°
2026-04-30 11:15 -0.73133 110.84868 36900 ft 481 kts 39°
2026-04-30 11:16 -0.67876 110.88966 36910 ft 481 kts 39°
2026-04-30 11:16 -0.62563 110.93109 36909 ft 483 kts 39°
2026-04-30 11:17 -0.57265 110.97240 36928 ft 482 kts 39°
2026-04-30 11:17 -0.51986 111.01356 36951 ft 483 kts 39°
2026-04-30 11:18 -0.46692 111.05484 36944 ft 481 kts 39°
2026-04-30 11:18 -0.38769 111.11661 36915 ft 483 kts 39°
2026-04-30 11:19 -0.33448 111.15794 36893 ft 484 kts 39°
2026-04-30 11:19 -0.28090 111.19949 36890 ft 484 kts 39°
2026-04-30 11:20 -0.22782 111.24067 36888 ft 483 kts 39°
2026-04-30 11:20 -0.17441 111.28210 36882 ft 483 kts 39°
2026-04-30 11:21 -0.12109 111.32348 36876 ft 484 kts 39°
2026-04-30 11:21 -0.06759 111.36498 36871 ft 483 kts 39°
2026-04-30 11:22 -0.01415 111.40645 36862 ft 485 kts 39°
2026-04-30 11:22 0.03954 111.44810 36855 ft 485 kts 39°